FALCON 9 DEB (52595 NORAD) Tracking and Keplerian Element Data

This shows tracking and keplerian element data for the satellite.

Feedback or suggestion? Click here.




ElementValue
Catalog52595
NameFALCON 9 DEB
Epoch Orbit755
Epoch Day178.15536633
Epoch Year2022
RAAN65.6705
Inclination53.2029
Eccentricity0.0007228
Argument of Perigee264.2499
Mean Anonmoly95.7729
Mean Motion16.46763343
Decay Rate0.11189053
L11 52595U 22051BG 22178.15536633 .11189053 12523-4 21845-3 0 9996
L22 52595 53.2029 65.6705 0007228 264.2499 95.7729 16.46763343 7552

Live tracking and technical data element details for FALCON 9 DEB (NORAD 52595). FALCON 9 DEB can be tracked NOW for your location showing map with azimuth and elevation plus other details from your city location.

Track the satellite on the map from your city or location and see movement details for azimuth, elevation, latitude, longitude, range, height, and movement on the map or in text.







IsCatalogInMostPopularTable: catalog: 52595, numindb: 6
Update: records affected: 1



GetName: 52595 FALCON 9 DEB

Hit Count: updated at: Sat, 13 Aug 2022 23:48:32 GMT